Date String (YYYY-MM-DD hh:mm:ss) UTC,Instrument flags,absolute air pressure of the measurement (hPa),sample flow rate (lpm),inlet stack bypass flow (lpm),air temperature of the measurement (°C),ambient temperature measured by the external sensor (°C),aerosol sample conditioner tube jacket temperature (°C),OPC LED temperature (°C),internal box temperature (°C),relative humidity of the measurement (%),span deviation,mass concentration of particles derived from Lorenz-Mie calculation of OPC scattering (μg/m³),mass concentration of particles derived from Lorenz-Mie calculation of OPC scattering (μg/m³),mass concentration of particles derived from Lorenz-Mie calculation of OPC scattering (μg/m³)
DateTimeUTC,F1_M11,P_M11,Q1_M11,Q2_M11,T1_M11,T2_M11,T3_M11,T4_M11,T5_M11,U1_M11,ZSPAN_M11,X0_M11,X2_M11,X1_M11
2024-06-14 10:00:00,SystemResetWarning,0833.4,4.99,000.00,030.3,029.8,000.0,038.4,032.1,033.4,0000.0,0035.62,0008.63,0005.87
2024-06-14 10:01:00,SystemResetWarning,0833.4,4.99,000.00,030.3,029.9,000.0,038.5,032.1,033.3,0000.0,0034.48,0008.62,0005.87
2024-06-14 10:02:00,SystemResetWarning,0833.4,5.00,000.00,030.4,029.9,000.0,038.5,032.1,033.2,0000.0,0033.53,0008.60,0005.88
2024-06-14 10:03:00,SystemResetWarning,0833.4,5.00,000.00,030.4,030.0,000.0,038.5,032.2,033.0,0000.0,0033.35,0008.61,0005.89
2024-06-14 10:04:00,SystemResetWarning,0833.4,5.00,000.00,030.5,030.0,000.0,038.6,032.2,032.7,0000.0,0034.56,0008.66,0005.92
2024-06-14 10:05:00,SystemResetWarning,0833.4,4.99,000.00,030.5,030.0,000.0,038.6,032.2,032.7,0000.0,0033.88,0008.60,0005.94
2024-06-14 10:06:00,SystemResetWarning,0833.4,5.00,000.00,030.5,029.6,000.0,038.7,032.0,032.7,0000.0,0032.80,0008.52,0005.95
2024-06-14 10:07:00,SystemResetWarning,0833.4,4.99,000.00,030.2,027.3,000.0,038.7,030.9,033.3,0000.0,0032.00,0008.57,0005.98
2024-06-14 10:08:00,SystemResetWarning,0833.3,5.02,000.00,029.8,026.4,000.0,038.7,030.5,034.1,0000.1,0033.73,0008.73,0006.00
2024-06-14 10:09:00,SystemResetWarning,0833.3,5.00,000.00,029.6,026.6,000.0,038.6,030.5,034.5,0002.7,0034.18,0008.77,0006.04
2024-06-14 10:10:00,SystemResetWarning,0833.4,5.00,000.00,029.6,027.1,000.0,038.4,030.7,034.6,0002.2,0034.40,0008.82,0006.07
2024-06-14 10:11:00,SystemResetWarning,0833.4,5.01,000.00,029.6,027.5,000.0,038.3,031.0,034.7,0001.6,0033.65,0008.81,0006.08
2024-06-14 10:12:00,SystemResetWarning,0833.4,5.00,000.00,029.6,027.9,000.0,038.3,031.1,034.7,0001.5,0033.54,0008.83,0006.10
2024-06-14 10:13:00,SystemResetWarning,0833.3,5.00,000.00,029.6,028.2,000.0,038.2,031.2,034.6,0001.6,0034.83,0008.94,0006.13
2024-06-14 10:14:00,SystemResetWarning,0833.3,4.99,000.00,029.7,028.4,000.0,038.2,031.3,034.5,0001.5,0035.01,0009.00,0006.17
2024-06-14 10:15:00,SystemResetWarning,0833.3,4.99,000.00,029.7,028.7,000.0,038.2,031.4,034.4,0001.7,0033.43,0009.06,0006.20
2024-06-14 10:16:00,SystemResetWarning,0833.3,5.00,000.00,029.8,028.8,000.0,038.2,031.5,034.2,0001.2,0034.63,0009.20,0006.22
2024-06-14 10:17:00,SystemResetWarning,0833.3,5.00,000.00,029.8,029.0,000.0,038.2,031.6,034.1,0000.3,0035.04,0009.32,0006.24
2024-06-14 10:18:00,SystemResetWarning,0833.2,5.00,000.00,029.9,029.1,000.0,038.2,031.6,034.0,0000.4,0037.54,0009.36,0006.26
2024-06-14 10:19:00,SystemResetWarning,0833.2,5.00,000.00,029.9,029.2,000.0,038.2,031.7,034.0,0000.6,0037.54,0009.30,0006.27
2024-06-14 10:20:00,SystemResetWarning,0833.2,5.00,000.00,030.0,029.3,000.0,038.2,031.8,033.9,0000.5,0036.41,0009.35,0006.28
2024-06-14 10:21:00,SystemResetWarning,0833.1,5.00,000.00,030.0,029.4,000.0,038.2,031.8,033.8,0000.9,0034.49,0009.34,0006.28
2024-06-14 10:22:00,SystemResetWarning,0833.2,5.00,000.00,030.1,029.5,000.0,038.2,031.9,033.6,0001.2,0035.31,0009.34,0006.29
2024-06-14 10:23:00,SystemResetWarning,0833.2,5.00,000.00,030.1,029.5,000.0,038.3,031.9,033.5,0001.1,0036.90,0009.40,0006.31
2024-06-14 10:24:00,SystemResetWarning,0833.2,5.00,000.00,030.1,029.6,000.0,038.3,031.9,033.4,0001.0,0036.51,0009.33,0006.31
2024-06-14 10:25:00,SystemResetWarning,0833.2,5.00,000.00,030.2,029.7,000.0,038.3,032.0,033.3,0001.2,0036.64,0009.26,0006.30
2024-06-14 10:26:00,SystemResetWarning,0833.2,5.00,000.00,030.2,029.7,000.0,038.4,032.0,033.2,0001.3,0037.79,0009.24,0006.30
2024-06-14 10:27:00,SystemResetWarning,0833.2,5.00,000.00,030.3,029.8,000.0,038.4,032.0,033.2,0000.8,0037.86,0009.15,0006.29
2024-06-14 10:28:00,SystemResetWarning,0833.2,5.00,000.00,030.3,029.8,000.0,038.4,032.1,033.2,0001.1,0036.93,0009.06,0006.28
2024-06-14 10:29:00,SystemResetWarning,0833.2,5.00,000.00,030.3,029.8,000.0,038.5,032.1,033.1,0001.7,0035.52,0009.03,0006.27
2024-06-14 10:30:00,SystemResetWarning,0833.2,4.99,000.00,030.4,029.9,000.0,038.5,032.1,033.3,0001.9,0035.26,0009.02,0006.25
2024-06-14 10:31:00,SystemResetWarning,0833.2,5.00,000.00,030.4,029.9,000.0,038.5,032.2,033.3,0001.1,0035.68,0008.93,0006.24
2024-06-14 10:32:00,SystemResetWarning,0833.2,5.01,000.00,030.5,029.9,000.0,038.6,032.2,033.3,0000.4,0036.38,0008.98,0006.26
2024-06-14 10:33:00,SystemResetWarning,0833.2,5.01,000.00,030.5,030.0,000.0,038.6,032.2,033.2,0001.0,0035.49,0008.96,0006.26
2024-06-14 10:34:00,SystemResetWarning,0833.2,5.01,000.00,030.5,030.0,000.0,038.6,032.3,033.1,0001.0,0034.11,0008.92,0006.26
2024-06-14 10:35:00,SystemResetWarning,0833.2,5.00,000.00,030.6,030.1,000.0,038.7,032.3,033.0,0000.1,0032.37,0008.96,0006.26
2024-06-14 10:36:00,SystemResetWarning,0833.2,4.99,000.00,030.6,030.1,000.0,038.7,032.3,032.9,0000.9,0031.74,0009.02,0006.28
2024-06-14 10:37:00,SystemResetWarning,0833.2,4.99,000.00,030.6,030.1,000.0,038.7,032.3,032.9,0001.6,0030.03,0009.04,0006.27
2024-06-14 10:38:00,SystemResetWarning,0833.2,5.00,000.00,030.6,029.6,000.0,038.8,032.1,033.0,0001.7,0030.09,0009.05,0006.29
2024-06-14 10:39:00,SystemResetWarning,0833.1,5.00,000.00,030.3,027.2,000.0,038.8,031.0,033.7,0001.3,0031.06,0009.05,0006.30
2024-06-14 10:40:00,SystemResetWarning,0833.1,5.01,000.00,029.9,026.3,000.0,038.8,030.5,034.7,0000.0,0030.76,0009.08,0006.32
2024-06-14 10:41:00,SystemResetWarning,0833.0,5.01,000.00,029.7,026.6,000.0,038.7,030.5,035.2,0000.1,0029.39,0009.07,0006.35
2024-06-14 10:42:00,SystemResetWarning,0833.2,4.99,000.00,029.6,027.0,000.0,038.5,030.8,035.4,0001.7,0028.85,0009.11,0006.38
2024-06-14 10:43:00,SystemResetWarning,0833.0,5.00,000.00,029.6,027.5,000.0,038.4,031.0,035.4,0001.8,0028.76,0009.05,0006.38
2024-06-14 10:44:00,SystemResetWarning,0833.3,5.00,000.00,029.7,027.9,000.0,038.4,031.2,035.3,0001.9,0027.96,0009.10,0006.40
2024-06-14 10:45:00,SystemResetWarning,0833.4,5.01,000.00,029.7,028.2,000.0,038.3,031.3,035.3,0001.5,0027.54,0009.12,0006.42
2024-06-14 10:46:00,SystemResetWarning,0833.2,5.01,000.00,029.7,028.4,000.0,038.3,031.4,035.3,0001.4,0027.76,0009.18,0006.45
2024-06-14 10:47:00,SystemResetWarning,0833.1,5.00,000.00,029.8,028.7,000.0,038.3,031.5,035.3,0001.8,0028.06,0009.24,0006.48
2024-06-14 10:48:00,SystemResetWarning,0833.1,4.99,000.00,029.8,028.9,000.0,038.3,031.6,035.2,0001.3,0028.86,0009.24,0006.50
2024-06-14 10:49:00,SystemResetWarning,0833.1,4.99,000.00,029.9,029.0,000.0,038.3,031.7,035.1,0001.6,0028.88,0009.25,0006.51
2024-06-14 10:50:00,SystemResetWarning,0833.2,5.00,000.00,029.9,029.1,000.0,038.3,031.7,035.0,0002.0,0030.52,0009.30,0006.53
2024-06-14 10:51:00,SystemResetWarning,0833.2,5.01,000.00,029.9,029.3,000.0,038.3,031.8,035.0,0001.8,0030.68,0009.34,0006.53
2024-06-14 10:52:00,SystemResetWarning,0833.2,5.01,000.00,030.0,029.4,000.0,038.3,031.8,034.9,0001.7,0030.67,0009.39,0006.55
2024-06-14 10:53:00,SystemResetWarning,0833.2,5.00,000.00,030.0,029.4,000.0,038.3,031.9,034.8,0001.4,0030.52,0009.41,0006.54
2024-06-14 10:54:00,SystemResetWarning,0833.2,4.98,000.00,030.1,029.5,000.0,038.3,031.9,034.6,0001.8,0031.42,0009.43,0006.54
2024-06-14 10:55:00,SystemResetWarning,0833.3,4.99,000.00,030.1,029.6,000.0,038.4,031.9,034.6,0001.3,0032.64,0009.44,0006.54
2024-06-14 10:56:00,SystemResetWarning,0833.3,5.01,000.00,030.2,029.6,000.0,038.4,032.0,034.6,0001.1,0033.05,0009.42,0006.53
2024-06-14 10:57:00,SystemResetWarning,0833.3,5.01,000.00,030.2,029.7,000.0,038.4,032.0,034.5,0000.6,0032.85,0009.41,0006.52
2024-06-14 10:58:00,SystemResetWarning,0833.2,4.99,000.00,030.3,029.8,000.0,038.4,032.1,034.4,0000.0,0032.64,0009.34,0006.51
2024-06-14 10:59:00,SystemResetWarning,0833.3,4.99,000.00,030.3,029.8,000.0,038.5,032.1,034.3,0000.0,0034.06,0009.32,0006.51
